Regional Weather Roundup
Issued by NWS

Home | Current Version | Previous Version | Text Only | Print | Product List | Glossary On
Versions: 1 2 3 4 5 6 7 8 9 10 11 12 13 14 15 16 17 18 19 20 21 22 23 24 25 26 27 28 29 30 31 32 33 34 35 36 37 38 39 40 41 42 43 44 45 46 47 48 49 50
000
ASUS43 KLSX 251057
RWRMO

WEATHER SUMMARY FOR MISSOURI
NATIONAL WEATHER SERVICE SPRINGFIELD MO
600 AM CDT THU MAY 25 2017

NOTE: "FAIR" INDICATES FEW OR NO CLOUDS BELOW 12,000 FEET WITH NO
       SIGNIFICANT WEATHER AND/OR OBSTRUCTIONS TO VISIBILITY.
       CURRENT SKY AND/OR WEATHER CONDITIONS ARE NOT AVAILABLE FOR
       CHILLICOTHE AND FARMINGTON.

MOZ001>031-035>038-043-044-053-054-251200-
...NORTHERN AND WESTERN MISSOURI...

CITY           SKY/WX    TMP DP  RH WIND       PRES   REMARKS
KANSAS CTY INT PTCLDY    48  46  93 SE9       29.69S
LEE`S SUMMIT   CLEAR     51  48  89 SW5       29.72R
ST JOSEPH      FOG       44  44 100 CALM      29.69F VSB 1
CHILLICOTHE      N/A     44  42  93 CALM      29.72R
KIRKSVILLE     FOG       45  45 100 CALM      29.71R VSB 3/4

$$
MOZ066>068-077>081-088>096-101>105-251200-
...SOUTHWEST MISSOURI...

CITY           SKY/WX    TMP DP  RH WIND       PRES   REMARKS
SPRINGFIELD    CLEAR     46  44  93 SE5       29.72S
JOPLIN         CLEAR     49  47  93 CALM      29.72F

$$
MOZ032>034-039>042-045>050-055>058-069>072-251200-
...CENTRAL MISSOURI...

CITY           SKY/WX    TMP DP  RH WIND       PRES   REMARKS
COLUMBIA       NOT AVBL
JEFFERSON CITY FOG       50  47  89 NW3       29.72R VSB 1/4
ROLLA          CLEAR     44  44 100 CALM      29.70R
SEDALIA        CLEAR     50  50 100 SW5       29.73R
WARRENSBURG    CLEAR     45  43  93 CALM      29.72R

$$
MOZ051-052-059>065-251200-
...EAST CENTRAL MISSOURI...

CITY           SKY/WX    TMP DP  RH WIND       PRES   REMARKS
ST LOUIS INTL  PTCLDY    55  50  83 W8        29.67R

$$
MOZ072>076-082>087-097>100-106>115-251200-
...SOUTH CENTRAL AND SOUTHEAST MISSOURI...

CITY           SKY/WX    TMP DP  RH WIND       PRES   REMARKS
CAPE GIRARDEAU CLEAR     51  48  89 W8        29.67R
FARMINGTON     PTCLDY    48  48 100 W3        29.69R
POPLAR BLUFF   CLEAR     51  49  92 NW5       29.70R
WEST PLAINS    PTCLDY    46  45  96 W5        29.73S

$$


USA.gov is the U.S. government's official web portal to all federal, state and local government web resources and services.